Terug naar catalogus

STARLINK-5306

ActiefCommunicatieVLEO
NORAD 55271·PAYLOAD·🇺🇸 United States

Gelanceerd Jan 19, 2023 vanaf Vandenberg Space Force Base

Loading…

Volgende Passages (komende 24 uur)

TLE

VersSource: CelesTrak SupGP

Epoch: Sep 15, 2026, 02:13 UTC

1 55271C 23010C   26258.09284722  .00697270  00000+0  57698-1 0  2587
2 55271  69.9995 287.0096 0003305 262.5115 111.1691 14.98469295    12

Volg STARLINK-5306 in realtime met AllMySat

Download on the App Store